Flag for U.S.A. Weather past 2 weeks in Pasco, Washington, U.S.A.

Now
64 °F

Mostly cloudy.


Feels Like: 64 °F
Forecast: 46 / 68 °F
Wind: 12 mph from Southwest

Location: Tri-Cities Airport


UV Index: 0 (Low)

Visibility: 10 mi


Pressure: 30.01 "Hg

Humidity: 35%

Dew point: 36 °F

Location of PascoLocation

Historic Weather in Pasco

°F

Pasco temperature yesterday

Maximum temperature yesterday: 69 °F (at 2:53 PM)
Minimum temperature yesterday: 50 °F (at 3:53 AM)
Average temperature yesterday: 58 °F

Past Weeks' High & Low Weather Summary

 TemperatureHumidityPressure
High81 °F (Apr 8, 2:53 PM)97% (Apr 2, 3:53 AM)30.36 "Hg (Apr 2, 3:53 AM)
Low27 °F (Apr 14, 5:53 AM)11% (Apr 9, 3:53 PM)29.71 "Hg (Apr 1, 4:53 PM)
Average55 °F49%30.04 "Hg
* Reported Apr 1 12:53 PM — Apr 16 12:53 PM, Pasco, Weather by CustomWeather, © 2014

Note: Actual official high and low records may vary slightly from our data, if they occured in-between our weather recording intervals... More about our weather records

Advertising

Historic Weather Conditions — Data for Previous 24 hours

 ConditionsComfort  
Time TempWeatherWind HumidityBarometerVisibility
12:53 PM
Apr 16
64 °FOvercast.17 mph37%30.03 "Hg10 mi
11:53 AM62 °FPartly sunny.14 mph39%30.05 "Hg10 mi
10:53 AM60 °FBroken clouds.22 mph42%30.05 "Hg10 mi
9:53 AM57 °FOvercast.16 mph51%30.05 "Hg10 mi
8:53 AM54 °FMostly cloudy.5 mph59%30.06 "Hg10 mi
7:53 AM52 °FMostly cloudy.3 mph61%30.06 "Hg10 mi
6:53 AM52 °FOvercast.6 mph57%30.06 "Hg10 mi
5:53 AM51 °FMostly cloudy.3 mph59%30.05 "Hg10 mi
4:53 AM51 °FOvercast.3 mph59%30.05 "Hg10 mi
3:53 AM50 °FMostly cloudy.3 mph59%30.04 "Hg10 mi
2:53 AM49 °FClear.3 mph61%30.04 "Hg10 mi
1:53 AM49 °FPassing clouds.5 mph64%30.05 "Hg10 mi
12:53 AM51 °FClear.5 mph54%30.05 "Hg10 mi
11:53 PM
Apr 15
50 °FClear.3 mph46%30.04 "Hg10 mi
10:53 PM53 °FClear.3 mph43%30.03 "Hg10 mi
9:53 PM57 °FClear.15 mph33%30.03 "Hg10 mi
8:53 PM55 °FClear.15 mph34%30.01 "Hg10 mi
7:53 PM57 °FSunny.14 mph32%30.00 "Hg10 mi
6:53 PM60 °FSunny.17 mph26%29.99 "Hg10 mi
5:53 PM63 °FSunny.15 mph20%29.98 "Hg10 mi
4:53 PM66 °FSunny.18 mph16%29.98 "Hg10 mi
3:53 PM66 °FSunny.16 mph17%29.99 "Hg10 mi
Weather by CustomWeather, © 2014

See weather overview